EW6472 Weather Reports


time (UTC)temp
C
wind
direction
speed
KPH
gust
KPH
rain 1hr
cm
rain 24hr
cm
rain mn
cm
humidity
%
barometer
mb
20260507080114 13 108 0.0 1.6 0.00 0.00 0.00 82 1015.0
20260507074556 14 238 0.0 0.0 0.00 0.00 0.00 81 1015.0
20260507073057 14 238 0.0 0.0 0.00 0.00 0.00 82 1015.0
20260507071559 14 238 0.0 0.0 0.00 0.00 0.00 80 1015.0
20260507070043 15 238 0.0 0.0 0.00 0.00 0.00 79 1015.0
20260507064546 15 238 0.0 0.0 0.00 0.00 0.00 80 1015.2
20260507063042 14 238 0.0 0.0 0.00 0.00 0.00 80 1015.3
20260507061542 15 238 0.0 0.0 0.00 0.00 0.00 78 1015.2
20260507060046 15 238 0.0 0.0 0.00 0.00 0.00 76 1015.2
20260507054549 15 238 0.0 0.0 0.00 0.00 0.00 76 1015.3
20260507053045 16 238 0.0 0.0 0.00 0.00 0.00 75 1015.2
20260507051540 16 238 0.0 1.6 0.00 0.00 0.00 74 1015.1
20260507050039 16 240 0.0 1.6 0.00 0.00 0.00 73 1015.0
20260507044538 16 233 0.0 1.6 0.00 0.00 0.00 71 1015.0
20260507043039 17 239 0.0 3.2 0.00 0.00 0.00 70 1015.0
20260507041537 17 260 0.0 1.6 0.00 0.00 0.00 69 1014.9
20260507040043 17 275 0.0 4.8 0.00 0.00 0.00 67 1014.8
20260507034535 18 248 0.0 6.4 0.00 0.00 0.00 64 1014.6
20260507033038 18 285 0.0 4.8 0.00 0.00 0.00 63 1014.5
20260507031535 18 248 0.0 4.8 0.00 0.00 0.00 65 1014.3
20260507030035 18 212 3.2 8.0 0.00 0.00 0.00 65 1014.1
20260507024535 19 150 0.0 8.0 0.00 0.00 0.00 62 1014.0
20260507023033 20 148 1.6 9.7 0.00 0.00 0.00 60 1013.8
20260507021532 20 187 3.2 11.3 0.00 0.00 0.00 59 1013.7
20260507020034 20 234 4.8 11.3 0.00 0.00 0.00 58 1013.5
20260507014531 21 219 4.8 14.5 0.00 0.00 0.00 58 1013.5
20260507013036 21 217 8.0 14.5 0.00 0.00 0.00 58 1013.4
20260507011538 21 189 3.2 14.5 0.00 0.00 0.00 57 1013.2
20260507010030 21 236 4.8 16.1 0.00 0.00 0.00 55 1013.1
20260507004528 22 269 4.8 16.1 0.00 0.00 0.00 53 1013.0
20260507003026 22 245 6.4 17.7 0.00 0.00 0.00 53 1013.0
20260507001529 22 266 4.8 12.9 0.00 0.00 0.00 51 1013.0
20260507000025 23 236 4.8 12.9 0.00 0.00 0.00 51 1013.0
20260506234530 23 223 1.6 14.5 0.00 0.00 0.00 52 1012.9
20260506233023 22 242 4.8 17.7 0.00 0.00 0.00 51 1013.0
20260506231524 23 130 6.4 16.1 0.00 0.00 0.00 48 1013.0
20260506230020 23 219 6.4 17.7 0.00 0.00 0.00 47 1013.2
20260506224526 23 196 8.0 19.3 0.00 0.00 0.00 47 1013.2
20260506223017 23 269 3.2 16.1 0.00 0.00 0.00 47 1013.3
20260506221515 23 131 6.4 20.9 0.00 0.00 0.00 48 1013.5
20260506220012 23 150 3.2 17.7 0.00 0.00 0.00 48 1013.7
20260506214510 23 227 4.8 19.3 0.00 0.00 0.00 49 1013.9
20260506213038 23 227 3.2 11.3 0.00 0.00 0.00 49 1014.0
20260506211505 23 236 1.6 11.3 0.00 0.00 0.00 50 1014.2
20260506210002 23 232 3.2 11.3 0.00 0.00 0.00 52 1014.3
20260506204502 22 228 6.4 16.1 0.00 0.00 0.00 51 1014.4
20260506203143 23 283 9.7 17.7 0.00 0.00 0.00 49 1014.6
20260506201555 23 147 3.2 11.3 0.00 0.00 0.00 45 1014.7
20260506200053 22 215 3.2 12.9 0.00 0.00 0.00 48 1015.0
20260506194549 22 74 4.8 11.3 0.00 0.00 0.00 48 1015.2
20260506193047 22 233 1.6 11.3 0.00 0.00 0.00 49 1015.3
20260506191550 21 261 1.6 9.7 0.00 0.00 0.00 52 1015.4
20260506190049 21 60 1.6 9.7 0.00 0.00 0.00 50 1015.7
20260506184551 21 127 1.6 11.3 0.00 0.00 0.00 51 1015.8
20260506183041 20 221 3.2 12.9 0.00 0.00 0.00 54 1016.1
20260506181538 21 254 3.2 8.0 0.00 0.00 0.00 52 1016.1
20260506180037 20 222 1.6 11.3 0.00 0.00 0.00 54 1016.2
20260506174533 20 228 3.2 9.7 0.00 0.00 0.00 54 1016.2
20260506173039 19 174 1.6 8.0 0.00 0.00 0.00 54 1016.2
20260506171528 19 120 1.6 8.0 0.00 0.00 0.00 55 1016.3
20260506170024 18 162 3.2 8.0 0.00 0.00 0.00 59 1016.2
20260506164523 17 303 1.6 8.0 0.00 0.00 0.00 61 1016.3
20260506163039 17 237 3.2 6.4 0.00 0.00 0.00 61 1016.3
20260506161517 17 127 0.0 4.8 0.00 0.00 0.00 64 1016.3
20260506160016 17 120 1.6 6.4 0.00 0.00 0.00 64 1016.4
20260506154527 16 108 0.0 6.4 0.00 0.00 0.00 67 1016.4
20260506153011 16 120 0.0 3.2 0.00 0.00 0.00 68 1016.5
20260506151511 15 87 0.0 6.4 0.00 0.00 0.00 73 1016.5
20260506150006 14 82 3.2 6.4 0.00 0.00 0.00 76 1016.5
20260506144604 13 96 3.2 8.0 0.00 0.00 0.00 80 1016.5
20260506143058 12 105 3.2 9.7 0.00 0.00 0.00 82 1016.4
20260506141555 12 90 4.8 9.7 0.00 0.00 0.00 84 1016.4
20260506140056 12 96 4.8 8.0 0.00 0.00 0.00 86 1016.4
20260506134554 11 113 0.0 8.0 0.00 0.00 0.00 89 1016.2
20260506133053 11 86 0.0 3.2 0.00 0.00 0.00 90 1016.1
20260506131549 10 89 0.0 3.2 0.00 0.00 0.00 90 1015.8
20260506130048 10 88 1.6 3.2 0.00 0.00 0.00 89 1015.7
20260506124547 11 96 1.6 6.4 0.00 0.03 0.00 89 1015.7
20260506123048 11 90 3.2 6.4 0.00 0.03 0.00 90 1015.5
20260506121552 11 82 0.0 3.2 0.00 0.03 0.00 90 1015.3
20260506120042 11 82 0.0 3.2 0.00 0.03 0.00 89 1015.3
20260506114541 11 75 0.0 3.2 0.00 0.05 0.00 89 1015.3
20260506113039 11 86 0.0 3.2 0.00 0.05 0.00 89 1015.2
20260506111537 11 83 0.0 3.2 0.00 0.05 0.00 89 1015.2
20260506110040 11 108 0.0 1.6 0.00 0.05 0.00 88 1015.2
20260506104535 11 108 0.0 1.6 0.00 0.10 0.00 88 1015.3
20260506103033 12 108 0.0 1.6 0.00 0.10 0.00 87 1015.2
20260506101532 12 108 0.0 1.6 0.00 0.10 0.00 86 1015.3
20260506100034 12 108 0.0 3.2 0.00 0.10 0.00 86 1015.2
20260506094530 12 108 0.0 1.6 0.00 0.10 0.00 87 1015.2
20260506093029 12 108 0.0 1.6 0.00 0.10 0.00 87 1015.3
20260506091527 12 108 0.0 1.6 0.00 0.10 0.00 88 1015.4
20260506090025 12 108 0.0 3.2 0.00 0.10 0.00 87 1015.4
20260506084534 12 108 0.0 1.6 0.00 0.10 0.00 88 1015.4
20260506083027 12 108 0.0 3.2 0.00 0.10 0.00 88 1015.7
20260506081521 12 108 0.0 0.0 0.00 0.10 0.00 88 1015.7